Charleston, WV

4:30 PM EDT on April 28, 2017 (GMT -0400)
Yeager Airport

Weather History for KCRW - September, 2013

Change the Weather History Date:

Wednesday, September 11, 2013

  Actual Average Record
Temperature  
Mean Temperature 77 °F 69 °F  
Max Temperature 86 °F 80 °F 100 °F (1925)
Min Temperature 68 °F 59 °F 41 °F (1917)
Degree Days  
Heating Degree Days 0 1  
Month to date heating degree days 0 4  
Since 1 July heating degree days 3 6  
Cooling Degree Days 12 5  
Month to date cooling degree days 86 67  
Year to date cooling degree days 1052 1013  
Growing Degree Days 27 (Base 50)    
Moisture  
Dew Point 72 °F    
Average Humidity 83    
Maximum Humidity 100    
Minimum Humidity 65    
Precipitation  
Precipitation 0.08 in 0.11 in 1.03 in (1965)
Month to date precipitation 0.68 1.22  
Year to date precipitation 34.72 32.33  
Snow  
Snow 0.00 in - - ()
Month to date snowfall 0.0  
Since 1 September snowfall 0.0  
Snow Depth 0.00 in    
Sea Level Pressure  
Sea Level Pressure 30.13 in    
Wind  
Wind Speed 2 mph (South)    
Max Wind Speed 16 mph    
Max Gust Speed 17 mph    
Visibility 8 miles    
Events Rain , Thunderstorm    
T = Trace of Precipitation, MM = Missing Value Source: NWS Daily Summary

Daily Weather History Graph

Daily Weather History Graph

Search for Another Location

Airport or City:

Trip Planner

Search our weather history database for the weather conditions in past years. The results will help you decide how hot, cold, wet, or windy it might be!

Date:

Astronomy

Sep. 11, 2013 Rise Set
Actual Time 7:04 AM EDT 7:40 PM EDT
Civil Twilight 6:38 AM EDT 8:06 PM EDT
Nautical Twilight 6:06 AM EDT 8:38 PM EDT
Astronomical Twilight 5:34 AM EDT 9:10 PM EDT
Moon 1:26 PM EDT (9/11) 11:40 PM EDT (9/11)
Length of Visible Light 13h 28m
Length of Day
12h 35m
Waxing Crescent, 38% of the Moon is Illuminated
Sep 11
Waxing Crescent
Sep 12
First Quarter
Sep 19
Full
Sep 26
Last Quarter
Oct 4
New

Hourly Weather History & Observations

Time (EDT) Temp. Heat Index Dew Point Humidity Pressure Visibility Wind Dir Wind Speed Gust Speed Precip Events Conditions
12:54 AM 73.0 °F - 72.0 °F 96% 30.16 in 10.0 mi Calm Calm - N/A   Clear
1:44 AM 71.6 °F - 71.6 °F 100% 30.18 in 6.0 mi Calm Calm - N/A   Partly Cloudy
1:54 AM 72.0 °F - 72.0 °F 100% 30.15 in 6.0 mi Calm Calm - N/A   Partly Cloudy
2:54 AM 72.0 °F - 71.1 °F 97% 30.14 in 6.0 mi Calm Calm - N/A   Partly Cloudy
3:54 AM 71.1 °F - 70.0 °F 96% 30.14 in 6.0 mi Calm Calm - N/A   Partly Cloudy
4:54 AM 69.1 °F - 69.1 °F 100% 30.14 in 6.0 mi Calm Calm - N/A   Partly Cloudy
5:54 AM 69.1 °F - 69.1 °F 100% 30.15 in 6.0 mi Calm Calm - N/A   Scattered Clouds
6:31 AM 69.8 °F - 69.8 °F 100% 30.19 in 4.0 mi Calm Calm - N/A   Mostly Cloudy
6:54 AM 69.1 °F - 69.1 °F 100% 30.17 in 5.0 mi Calm Calm - N/A   Scattered Clouds
7:54 AM 69.1 °F - 69.1 °F 100% 30.18 in 5.0 mi Calm Calm - N/A   Scattered Clouds
8:54 AM 71.1 °F - 71.1 °F 100% 30.19 in 6.0 mi Calm Calm - N/A   Clear
9:54 AM 78.1 °F - 72.0 °F 81% 30.18 in 10.0 mi Calm Calm - N/A   Scattered Clouds
10:54 AM 82.0 °F 86.7 °F 72.0 °F 71% 30.18 in 10.0 mi Variable 4.6 mph - N/A   Scattered Clouds
11:54 AM 84.0 °F 89.6 °F 72.0 °F 67% 30.17 in 10.0 mi WSW 4.6 mph - N/A   Scattered Clouds
12:54 PM 75.9 °F - 72.0 °F 87% 30.15 in 9.0 mi ESE 3.5 mph - 0.02 in   Mostly Cloudy
1:14 PM 75.2 °F - 73.4 °F 94% 30.17 in 9.0 mi SE 10.4 mph - 0.00 in Rain , Thunderstorm Light Thunderstorms and Rain
1:35 PM 75.2 °F - 71.6 °F 89% 30.16 in 10.0 mi SSE 5.8 mph - 0.00 in   Scattered Clouds
1:54 PM 78.1 °F - 73.9 °F 87% 30.12 in 10.0 mi Calm Calm - 0.00 in   Scattered Clouds
2:54 PM 84.0 °F 91.9 °F 75.0 °F 74% 30.10 in 10.0 mi Calm Calm - N/A   Scattered Clouds
3:35 PM 77.0 °F - 73.4 °F 89% 30.12 in 9.0 mi SSE 9.2 mph - 0.06 in Rain , Thunderstorm Light Thunderstorms and Rain
3:54 PM 77.0 °F - 73.9 °F 90% 30.09 in 9.0 mi Variable 3.5 mph - 0.06 in Thunderstorm Thunderstorm
4:54 PM 79.0 °F - 70.0 °F 74% 30.08 in 9.0 mi Calm Calm - N/A   Mostly Cloudy
5:54 PM 79.0 °F - 73.9 °F 84% 30.09 in 9.0 mi Calm Calm - N/A   Mostly Cloudy
6:40 PM 78.8 °F - 73.4 °F 83% 30.10 in 9.0 mi Calm Calm - N/A Thunderstorm Thunderstorm
6:54 PM 78.1 °F - 73.9 °F 87% 30.06 in 9.0 mi SSW 3.5 mph - N/A Thunderstorm Thunderstorm
7:35 PM 78.8 °F - 73.4 °F 83% 30.08 in 9.0 mi SW 9.2 mph - N/A   Mostly Cloudy
7:54 PM 77.0 °F - 73.0 °F 88% 30.07 in 9.0 mi SW 8.1 mph - N/A   Mostly Cloudy
8:54 PM 75.0 °F - 73.0 °F 94% 30.08 in 10.0 mi SSE 5.8 mph - 0.00 in   Mostly Cloudy
9:54 PM 73.9 °F - 73.9 °F 100% 30.08 in 7.0 mi Calm Calm - N/A   Clear
10:54 PM 73.0 °F - 72.0 °F 96% 30.06 in 7.0 mi SSW 3.5 mph - N/A   Clear
11:54 PM 72.0 °F - 72.0 °F 100% 30.06 in 5.0 mi Calm Calm - N/A   Clear